Location: Austin
(30.3000°N, 97.7500°W)
Time: 12:40:50
(UTC-05:00)

USA 215 - Pass Details

Date: 05 September 2024
Orbit: 1102 x 1105 km, 123.0° (Epoch: 04 September)

Event Time Altitude Azimuth Distance (km) Brightness Sun altitude
Rises 21:27:13 0° 39° (NE) 3,920 6.0 -21.5°
Reaches altitude 10° 21:29:42 10° 38° (NE) 2,960 5.4 -22.0°
Maximum altitude 21:36:14 77° 313° (NW) 1,128 3.3 -23.3°
Drops below altitude 10° 21:42:44 10° 228° (SW) 2,950 5.8 -24.6°
Sets 21:45:13 0° 227° (SW) 3,906 6.4 -25.1°
